A/2019 U5

Japanese version
Home page
Updated on November 9, 2019

---------------------------------------------------------------------

* Profile

Discovery Date October 22, 2019
Magnitude 21.16 mag
Discoverer Pan-STARRS 1 telescope (Haleakala)

* Orbital Elements

Epoch 2023 Apr. 6.0 TT = JDT 2460040.5
T 2023 Apr. 6.26497 TT                                  Williams
q   3.6436964            (2000.0)            P               Q
z  +0.0016275      Peri.  181.55564     -0.99907298     +0.00878479
 +/-0.0015251      Node     2.63429     -0.02232202     +0.73134800
e   0.9940699      Incl.  113.51919     -0.03680898     -0.68194790
H   10.0
From 40 observations 2019 Oct. 11-29, mean residual 0".2.

* Finding Charts

* Magnitudes Graph

        H = 10.0  G = 0.15

---------------------------------------------------------------------

The orbital elements are published on M.P.E.C. 2019-V116.
The charts are made with StellaNavigator Ver.10 (AstroArts).
The magnitudes graphs are made with Comet for Windows.

---------------------------------------------------------------------

Copyright(C) Seiichi Yoshida (comet@aerith.net). All rights reserved.